Погода в Домнове

Россия / Калининградская область     54°25′39″N   20°49′42″E
темп.,
°C
ветер,
м/с
пор.,
м/с
влажн.,
%
обл.,
%
осадки,
мм/ч
давл.,
гПа
погр.,
м
15 мая, сб
сб1523:00+7ссз1193100 0.0 100512
02:00+6ю11935 0.0 100510
05:00+8зюз1184100 0.0 100634
08:00+11ююз2375100 0.0 1006279
11:00+14ююз3482100 0.0 1007704
14:00+12зюз4691100 0.4 1007525
17:00+10з3692100 0.1 1008325
20:00+9в11948 0.1 100811
16 мая, вс
вс1623:00+8вюв3396100 0.0 100845
02:00+7юв359514 0.0 100891
05:00+7юв3996100 0.0 1007176
08:00+12ююв4108593 0.0 1007472
11:00+12ю3796100 1.1 1007437
14:00+15ю358166 1.3 1006739
17:00+16ююв2378100 0.8 1005732
20:00+13ссз0189100 2.4 100410
17 мая, пн
пн1723:00+11з4796100 1.6 1004202
02:00+10з3796100 5.1 1003208
05:00+8ююз359442 0.6 100485
08:00+13ююз46874 0.6 1005365
11:00+16ююз34693 0.9 10051109
14:00+17ююз347395 2.3 1005953
17:00+17ю2375100 1.5 1004491
20:00+13ююз1186100 5.0 100412
18 мая, вт
вт1823:00+12юз1188100 1.1 100413
02:00+11юз2496100 2.4 1003103
05:00+11зюз2698100 0.8 1002224
08:00+11зюз2498100 5.8 1003229
11:00+11з4797100 2.6 1004472
14:00+12зсз469196 3.8 1005619
17:00+12сз458847 0.8 1006601
20:00+10з359263 0.8 1007316
19 мая, ср
ср1923:00+8зюз389649 0.1 1007236
02:00+7зюз410965 0.1 1008297
05:00+6зюз412955 0.0 1008327
08:00+11з6108260 0.0 1009755
11:00+11з798263 0.4 1010910
14:00+13зсз796324 0.6 10111417
17:00+12зсз68665 0.1 1011943
20:00+9зюз24855 0.1 101293